Regional Weather Roundup
Issued by NWS

Home | Current Version | Previous Version | Text Only | Print | Product List | Glossary On
Versions: 1 2 3 4 5 6 7 8 9 10 11 12 13 14 15 16 17 18 19 20 21 22 23 24 25 26 27 28 29 30 31 32 33 34 35 36 37 38 39 40 41 42 43 44 45 46 47 48 49 50
000
ASUS44 KMEG 261310
RWRTN
TENNESSEE HOURLY STATE WEATHER ROUNDUP
NATIONAL WEATHER SERVICE MEMPHIS TN
800 AM CDT SAT JUL 26 2014

TNZ002-004-019-021-049-052-054-088>092-261400-
WEST TENNESSEE

CITY           SKY/WX    TMP DP  RH WIND       PRES   REMARKS
MEMPHIS INTL   MOSUNNY   76  68  76 SW8       30.03R
NWS MEMPHIS      N/A     76 N/A N/A MISG        N/A
JACKSON        SUNNY     73  67  81 SW7       30.02R
DYERSBURG      SUNNY     75  63  64 CALM      30.01R
UNION CITY     SUNNY     72  66  83 CALM      30.00R
PARIS          CLOUDY    70  64  81 SW3       30.04R
LEXINGTON      SUNNY     70  66  88 S5        30.03R
SAVANNAH       SUNNY     69  69 100 S3        30.05R
$$

TNZ008-025-027-028-033-062-065-066-261400-
NORTH MIDDLE TENNESSEE

CITY           SKY/WX    TMP DP  RH WIND       PRES   REMARKS
NASHVILLE      MOSUNNY   72  65  78 S3        30.04R
DICKSON        SUNNY     72  64  78 W7        30.03R
PORTLAND       SUNNY     70  64  83 S6        30.03
CLARKSVILLE    SUNNY     72  65  78 SW5       30.02R
LEBANON        SUNNY     73  63  71 CALM      30.02R
SMYRNA         SUNNY     71  70  97 SE3       30.05R
MURFREESBORO   SUNNY     72  64  75 SW3       30.04R
COOKEVILLE     SUNNY     70  64  83 CALM      30.06R
LIVINGSTON       N/A     71  61  70 SW3       30.07
GALLATIN       SUNNY     69  66  90 CALM      30.05R
CROSSVILLE     SUNNY     73  62  68 CALM      30.11R
$$

TNZ061-075-076-078-094-096-097-261400-
SOUTH MIDDLE TENNESSEE

CITY           SKY/WX    TMP DP  RH WIND       PRES   REMARKS
LEWISBURG      SUNNY     72  65  78 CALM      30.04S
FAYETTEVILLE   SUNNY     72  64  78 S9G23     30.07R
TULLAHOMA      SUNNY     70  64  83 SW3       30.08R
WINCHESTER     SUNNY     72  64  78 CALM      30.07R
MCMINNVILLE    SUNNY     72  72 100 CALM      30.07R
COLUMBIA       SUNNY     72  66  83 SW3       30.04R
SHELBYVILLE    SUNNY     72  66  83 S5        30.06S
$$

TNZ017-018-042-046-047-261400-
NORTHEAST TENNESSEE

CITY           SKY/WX    TMP DP  RH WIND       PRES   REMARKS
TRI CITIES     MOSUNNY   70  63  78 CALM      30.10R
ELIZABETHTON   SUNNY     70  64  83 CALM      30.11R
$$

TNZ012-013-036-069-073-074-261400-
CENTRAL EAST TENNESSEE

CITY           SKY/WX    TMP DP  RH WIND       PRES   REMARKS
KNOXVILLE      PTSUNNY   70  65  84 CALM      30.07R
OAK RIDGE      CLOUDY    65  64  97 CALM      30.09R FOG
GATLINBURG     SUNNY     70  64  83 CALM      30.07S
MORRISTOWN     SUNNY     72  64  78 VRB3      30.09S
$$

TNZ083-085-099-261400-
SOUTHEAST TENNESSEE

CITY           SKY/WX    TMP DP  RH WIND       PRES   REMARKS
CHATTANOOGA    MOSUNNY   71  64  78 CALM      30.07R
$$

SKY/WX REPORTED AS FAIR MEANS FEW OR NO CLOUDS BELOW
12 THOUSAND FEET.




USA.gov is the U.S. government's official web portal to all federal, state and local government web resources and services.